SUR4199 SABE-SAZM

Flight info

Callsign SUR4199
Flight time 0h 45m
Altitude 29000
Route PAL9 GBE UW29 VOTRA VOTRA1U
Aircraft A320/M-SDE3FGHIRWY/LB1

Departure

Time 2026-04-26 20:35
Airport Aeroparque Jorge Newbery (SABE)

Arrival

Time 2026-04-26 21:20
Airport Ástor Piazzola International Airport (SAZM)
Time Latitude Longitude Altitude Speed Heading
2026-04-26 19:49 -34.55841 -58.41371 29 ft 0 kts 207°
2026-04-26 20:15 -34.55830 -58.41365 30 ft 4 kts 208°
2026-04-26 20:15 -34.55810 -58.41347 29 ft 4 kts 250°
2026-04-26 20:15 -34.55814 -58.41327 31 ft 4 kts 301°
2026-04-26 20:16 -34.55827 -58.41299 28 ft 3 kts 301°
2026-04-26 20:16 -34.55829 -58.41297 28 ft 0 kts 301°
2026-04-26 20:18 -34.55827 -58.41299 28 ft 1 kts 301°
2026-04-26 20:19 -34.55816 -58.41322 31 ft 5 kts 301°
2026-04-26 20:19 -34.55794 -58.41364 28 ft 7 kts 304°
2026-04-26 20:19 -34.55761 -58.41422 29 ft 10 kts 303°
2026-04-26 20:19 -34.55724 -58.41501 27 ft 12 kts 296°
2026-04-26 20:20 -34.55745 -58.41566 28 ft 9 kts 222°
2026-04-26 20:20 -34.55781 -58.41589 25 ft 5 kts 183°
2026-04-26 20:20 -34.55815 -58.41563 27 ft 7 kts 124°
2026-04-26 20:20 -34.55840 -58.41503 30 ft 9 kts 116°
2026-04-26 20:21 -34.55870 -58.41430 27 ft 11 kts 116°
2026-04-26 20:21 -34.55907 -58.41343 29 ft 12 kts 118°
2026-04-26 20:21 -34.55955 -58.41248 27 ft 14 kts 128°
2026-04-26 20:21 -34.56020 -58.41148 27 ft 16 kts 128°
2026-04-26 20:22 -34.56086 -58.41042 29 ft 15 kts 127°
2026-04-26 20:22 -34.56148 -58.40937 29 ft 12 kts 121°
2026-04-26 20:22 -34.56172 -58.40855 25 ft 10 kts 88°
2026-04-26 20:22 -34.56203 -58.40775 27 ft 12 kts 125°
2026-04-26 20:23 -34.56251 -58.40690 27 ft 12 kts 123°
2026-04-26 20:23 -34.56299 -58.40600 30 ft 14 kts 128°
2026-04-26 20:23 -34.56367 -58.40521 25 ft 12 kts 138°
2026-04-26 20:23 -34.56420 -58.40463 30 ft 0 kts 138°
2026-04-26 20:33 -34.56421 -58.40463 29 ft 1 kts 138°
2026-04-26 20:33 -34.56435 -58.40447 26 ft 5 kts 138°
2026-04-26 20:33 -34.56468 -58.40411 27 ft 8 kts 138°
2026-04-26 20:33 -34.56519 -58.40386 26 ft 9 kts 192°
2026-04-26 20:34 -34.56552 -58.40445 27 ft 10 kts 285°
2026-04-26 20:34 -34.56505 -58.40538 28 ft 22 kts 305°
2026-04-26 20:34 -34.56265 -58.40981 26 ft 102 kts 302°
2026-04-26 20:34 -34.55784 -58.41918 204 ft 145 kts 297°
2026-04-26 20:35 -34.55188 -58.42899 1009 ft 147 kts 300°
2026-04-26 20:35 -34.54307 -58.43667 1698 ft 171 kts 329°
2026-04-26 20:35 -34.53034 -58.43741 2083 ft 204 kts 12°
2026-04-26 20:35 -34.51895 -58.42645 2504 ft 225 kts 57°
2026-04-26 20:36 -34.51332 -58.40848 2923 ft 236 kts 81°
2026-04-26 20:36 -34.51072 -58.38792 3228 ft 258 kts 86°
2026-04-26 20:36 -34.50909 -58.36532 3607 ft 280 kts 96°
2026-04-26 20:36 -34.51167 -58.34151 4251 ft 288 kts 107°
2026-04-26 20:37 -34.51676 -58.31773 4767 ft 293 kts 112°
2026-04-26 20:37 -34.52277 -58.29418 4910 ft 292 kts 113°
2026-04-26 20:37 -34.52943 -58.27105 5036 ft 288 kts 121°
2026-04-26 20:37 -34.53972 -58.25039 5630 ft 284 kts 135°
2026-04-26 20:38 -34.55284 -58.23283 6565 ft 278 kts 146°
2026-04-26 20:38 -34.56815 -58.21880 7396 ft 275 kts 156°
2026-04-26 20:38 -34.58455 -58.20680 8204 ft 273 kts 165°
2026-04-26 20:38 -34.60253 -58.20162 8993 ft 263 kts 184°
2026-04-26 20:39 -34.62090 -58.20032 9779 ft 267 kts 185°
2026-04-26 20:39 -34.63326 -58.19951 10199 ft 273 kts 185°
2026-04-26 20:39 -34.66002 -58.19793 10505 ft 303 kts 185°
2026-04-26 20:39 -34.68182 -58.19664 10777 ft 321 kts 184°
2026-04-26 20:40 -34.70441 -58.19515 11364 ft 328 kts 184°
2026-04-26 20:40 -34.72733 -58.19356 12022 ft 332 kts 184°
2026-04-26 20:40 -34.75052 -58.19195 12676 ft 335 kts 185°
2026-04-26 20:40 -34.77397 -58.19044 13336 ft 339 kts 185°
2026-04-26 20:41 -34.79769 -58.18879 13944 ft 344 kts 184°
2026-04-26 20:41 -34.82165 -58.18663 14505 ft 348 kts 186°
2026-04-26 20:41 -34.84590 -58.18471 15076 ft 350 kts 187°
2026-04-26 20:41 -34.86999 -58.18303 15681 ft 352 kts 188°
2026-04-26 20:42 -34.89453 -58.18145 16275 ft 354 kts 188°
2026-04-26 20:42 -34.91923 -58.17989 16868 ft 357 kts 189°
2026-04-26 20:42 -34.94406 -58.17830 17452 ft 359 kts 189°
2026-04-26 20:42 -34.96913 -58.17668 18045 ft 362 kts 190°
2026-04-26 20:43 -34.99438 -58.17499 18566 ft 365 kts 191°
2026-04-26 20:43 -35.01980 -58.17324 19061 ft 368 kts 191°
2026-04-26 20:43 -35.04548 -58.17147 19560 ft 371 kts 191°
2026-04-26 20:43 -35.07135 -58.16969 20073 ft 374 kts 192°
2026-04-26 20:44 -35.09743 -58.16792 20623 ft 377 kts 190°
2026-04-26 20:44 -35.12375 -58.16613 21073 ft 381 kts 190°
2026-04-26 20:44 -35.15031 -58.16431 21526 ft 384 kts 191°
2026-04-26 20:44 -35.17706 -58.16249 21973 ft 386 kts 192°
2026-04-26 20:45 -35.20401 -58.16064 22421 ft 389 kts 192°
2026-04-26 20:45 -35.23116 -58.15876 22869 ft 392 kts 193°
2026-04-26 20:45 -35.25846 -58.15687 23320 ft 395 kts 193°
2026-04-26 20:45 -35.28599 -58.15494 23711 ft 398 kts 193°
2026-04-26 20:46 -35.30473 -58.15362 24034 ft 399 kts 191°
2026-04-26 20:46 -35.33262 -58.15168 24375 ft 403 kts 191°
2026-04-26 20:46 -35.36065 -58.14977 24719 ft 405 kts 191°
2026-04-26 20:46 -35.38891 -58.14784 25066 ft 408 kts 191°
2026-04-26 20:47 -35.41699 -58.14590 25404 ft 411 kts 191°
2026-04-26 20:47 -35.43633 -58.14455 25626 ft 412 kts 191°
2026-04-26 20:47 -35.47441 -58.14188 26071 ft 416 kts 191°
2026-04-26 20:47 -35.50376 -58.13983 26420 ft 418 kts 191°
2026-04-26 20:48 -35.53290 -58.13784 26816 ft 421 kts 188°
2026-04-26 20:48 -35.56182 -58.13588 27140 ft 424 kts 188°
2026-04-26 20:48 -35.59135 -58.13384 27486 ft 426 kts 188°
2026-04-26 20:48 -35.62105 -58.13176 27830 ft 429 kts 188°
2026-04-26 20:49 -35.65093 -58.12969 28164 ft 431 kts 188°
2026-04-26 20:49 -35.68097 -58.12758 28499 ft 434 kts 188°
2026-04-26 20:49 -35.71119 -58.12545 28795 ft 436 kts 189°
2026-04-26 20:50 -35.77135 -58.12114 28857 ft 430 kts 187°
2026-04-26 20:50 -35.83109 -58.11693 28857 ft 430 kts 187°
2026-04-26 20:51 -35.89077 -58.11280 28854 ft 429 kts 187°
2026-04-26 20:51 -35.92069 -58.10805 28856 ft 445 kts 176°
2026-04-26 20:51 -35.95067 -58.09731 28841 ft 448 kts 172°
2026-04-26 20:52 -36.00999 -58.07484 28823 ft 445 kts 172°
2026-04-26 20:52 -36.06915 -58.05211 28822 ft 445 kts 172°
2026-04-26 20:53 -36.12834 -58.02954 28840 ft 443 kts 171°
2026-04-26 20:53 -36.18695 -58.00733 28801 ft 438 kts 172°
2026-04-26 20:54 -36.24462 -57.98550 28785 ft 435 kts 172°
2026-04-26 20:54 -36.30221 -57.96347 28830 ft 431 kts 172°
2026-04-26 20:55 -36.35935 -57.94168 28815 ft 428 kts 171°
2026-04-26 20:55 -36.41615 -57.91999 28818 ft 426 kts 171°
2026-04-26 20:56 -36.47262 -57.89835 28809 ft 424 kts 171°
2026-04-26 20:56 -36.52882 -57.87676 28811 ft 422 kts 171°
2026-04-26 20:57 -36.58478 -57.85532 28799 ft 420 kts 171°
2026-04-26 20:57 -36.64048 -57.83396 28788 ft 418 kts 171°
2026-04-26 20:58 -36.69629 -57.81252 28510 ft 423 kts 170°
2026-04-26 20:58 -36.72425 -57.80173 27972 ft 417 kts 170°
2026-04-26 20:58 -36.75167 -57.79107 27412 ft 408 kts 169°
2026-04-26 20:58 -36.77847 -57.78061 26852 ft 400 kts 169°
2026-04-26 20:59 -36.80481 -57.77035 26320 ft 393 kts 169°
2026-04-26 20:59 -36.83068 -57.76032 25790 ft 386 kts 168°
2026-04-26 20:59 -36.85614 -57.75047 25271 ft 381 kts 168°
2026-04-26 20:59 -36.88128 -57.74076 24772 ft 376 kts 168°
2026-04-26 21:00 -36.90576 -57.73131 24263 ft 370 kts 167°
2026-04-26 21:00 -36.93043 -57.72179 23779 ft 364 kts 167°
2026-04-26 21:00 -36.95447 -57.71250 23297 ft 359 kts 167°
2026-04-26 21:00 -36.97798 -57.70343 22786 ft 357 kts 167°
2026-04-26 21:01 -37.00160 -57.69431 22344 ft 353 kts 167°
2026-04-26 21:01 -37.02496 -57.68523 21907 ft 350 kts 167°
2026-04-26 21:01 -37.04807 -57.67622 21481 ft 347 kts 167°
2026-04-26 21:01 -37.07108 -57.66722 21051 ft 344 kts 167°
2026-04-26 21:02 -37.09383 -57.65832 20640 ft 342 kts 167°
2026-04-26 21:02 -37.11656 -57.64947 20236 ft 341 kts 167°
2026-04-26 21:02 -37.13935 -57.64062 19799 ft 346 kts 167°
2026-04-26 21:02 -37.16234 -57.63166 19363 ft 347 kts 167°
2026-04-26 21:03 -37.18533 -57.62268 18921 ft 345 kts 167°
2026-04-26 21:03 -37.20819 -57.61373 18465 ft 343 kts 167°
2026-04-26 21:03 -37.23092 -57.60481 18010 ft 342 kts 167°
2026-04-26 21:03 -37.25399 -57.59582 17487 ft 351 kts 167°
2026-04-26 21:04 -37.27738 -57.58673 17002 ft 352 kts 167°
2026-04-26 21:04 -37.30072 -57.57761 16516 ft 350 kts 167°
2026-04-26 21:04 -37.32394 -57.56852 16032 ft 348 kts 167°
2026-04-26 21:04 -37.34696 -57.55947 15518 ft 346 kts 167°
2026-04-26 21:05 -37.37009 -57.55039 14672 ft 350 kts 167°
2026-04-26 21:05 -37.39318 -57.54130 13749 ft 345 kts 167°
2026-04-26 21:05 -37.41562 -57.53247 12810 ft 340 kts 167°
2026-04-26 21:05 -37.43780 -57.52370 12209 ft 330 kts 167°
2026-04-26 21:06 -37.45968 -57.51506 11731 ft 329 kts 168°
2026-04-26 21:06 -37.48143 -57.50648 11246 ft 326 kts 168°
2026-04-26 21:06 -37.50304 -57.49798 10768 ft 324 kts 168°
2026-04-26 21:06 -37.52446 -57.48955 10294 ft 322 kts 168°
2026-04-26 21:07 -37.54538 -57.48123 9948 ft 304 kts 168°
2026-04-26 21:07 -37.56481 -57.47344 9735 ft 284 kts 168°
2026-04-26 21:07 -37.58319 -57.46610 9529 ft 273 kts 169°
2026-04-26 21:07 -37.60131 -57.45896 9411 ft 271 kts 168°
2026-04-26 21:08 -37.61921 -57.45195 9275 ft 268 kts 169°
2026-04-26 21:08 -37.63696 -57.44500 9128 ft 267 kts 168°
2026-04-26 21:08 -37.65474 -57.43802 8991 ft 268 kts 168°
2026-04-26 21:08 -37.67251 -57.43104 8699 ft 266 kts 169°
2026-04-26 21:09 -37.69013 -57.42409 8351 ft 264 kts 169°
2026-04-26 21:09 -37.70739 -57.41725 8000 ft 263 kts 169°
2026-04-26 21:09 -37.72479 -57.41034 7648 ft 261 kts 169°
2026-04-26 21:09 -37.74205 -57.40348 7303 ft 259 kts 169°
2026-04-26 21:10 -37.75920 -57.39668 6958 ft 257 kts 169°
2026-04-26 21:10 -37.77621 -57.38991 6692 ft 255 kts 169°
2026-04-26 21:10 -37.79311 -57.38318 6557 ft 256 kts 168°
2026-04-26 21:10 -37.81005 -57.37647 6266 ft 256 kts 170°
2026-04-26 21:11 -37.82702 -57.36973 5939 ft 253 kts 172°
2026-04-26 21:11 -37.84349 -57.36309 5589 ft 243 kts 173°
2026-04-26 21:11 -37.85924 -57.35671 5271 ft 232 kts 173°
2026-04-26 21:11 -37.87430 -57.35065 4966 ft 222 kts 174°
2026-04-26 21:12 -37.88867 -57.34488 4676 ft 211 kts 172°
2026-04-26 21:12 -37.90235 -57.33937 4391 ft 201 kts 174°
2026-04-26 21:12 -37.91535 -57.33414 4118 ft 191 kts 174°
2026-04-26 21:12 -37.92790 -57.32963 3872 ft 182 kts 184°
2026-04-26 21:13 -37.93998 -57.32946 3633 ft 167 kts 199°
2026-04-26 21:13 -37.95084 -57.33325 3414 ft 159 kts 212°
2026-04-26 21:13 -37.96022 -57.34016 3212 ft 154 kts 219°
2026-04-26 21:13 -37.96910 -57.34798 2998 ft 153 kts 218°
2026-04-26 21:14 -37.97747 -57.35524 2785 ft 140 kts 218°
2026-04-26 21:14 -37.98527 -57.36198 2564 ft 134 kts 218°
2026-04-26 21:14 -37.99289 -57.36859 2385 ft 132 kts 218°
2026-04-26 21:14 -38.00044 -57.37514 2193 ft 131 kts 218°
2026-04-26 21:15 -38.00794 -57.38166 1994 ft 131 kts 217°
2026-04-26 21:15 -38.01540 -57.38849 1804 ft 131 kts 226°
2026-04-26 21:15 -38.01924 -57.39872 1718 ft 134 kts 257°
2026-04-26 21:15 -38.01690 -57.41040 1688 ft 143 kts 289°
2026-04-26 21:16 -38.01151 -57.42072 1687 ft 138 kts 288°
2026-04-26 21:16 -38.00634 -57.43083 1688 ft 136 kts 289°
2026-04-26 21:16 -38.00131 -57.44076 1686 ft 136 kts 290°
2026-04-26 21:16 -37.99615 -57.45091 1698 ft 132 kts 291°
2026-04-26 21:17 -37.99118 -57.46062 1681 ft 126 kts 290°
2026-04-26 21:17 -37.98644 -57.46994 1675 ft 125 kts 289°
2026-04-26 21:17 -37.98174 -57.47928 1617 ft 127 kts 290°
2026-04-26 21:17 -37.97701 -57.48865 1429 ft 126 kts 291°
2026-04-26 21:18 -37.97231 -57.49795 1253 ft 125 kts 291°
2026-04-26 21:18 -37.96759 -57.50728 1097 ft 125 kts 291°
2026-04-26 21:18 -37.96288 -57.51654 936 ft 125 kts 291°
2026-04-26 21:18 -37.95826 -57.52604 745 ft 128 kts 294°
2026-04-26 21:19 -37.95328 -57.53545 652 ft 127 kts 298°
2026-04-26 21:19 -37.94838 -57.54525 401 ft 132 kts 297°
2026-04-26 21:19 -37.94346 -57.55481 274 ft 129 kts 298°
2026-04-26 21:19 -37.93877 -57.56421 83 ft 126 kts 298°
2026-04-26 21:20 -37.93481 -57.57222 46 ft 75 kts 304°
2026-04-26 21:20 -37.93355 -57.57457 46 ft 1 kts 304°
2026-04-26 21:20 -37.93330 -57.57504 45 ft 13 kts 303°
2026-04-26 21:20 -37.93281 -57.57603 43 ft 14 kts 302°
2026-04-26 21:21 -37.93230 -57.57705 48 ft 14 kts 302°
2026-04-26 21:21 -37.93176 -57.57809 45 ft 15 kts 303°
2026-04-26 21:21 -37.93129 -57.57903 48 ft 11 kts 297°
2026-04-26 21:21 -37.93157 -57.57978 50 ft 8 kts 214°
2026-04-26 21:22 -37.93164 -57.57983 51 ft 0 kts 213°
2026-04-26 21:22 -37.93165 -57.57984 51 ft 1 kts 213°
2026-04-26 21:22 -37.93178 -57.57995 51 ft 3 kts 213°
2026-04-26 21:23 -37.93237 -57.58038 53 ft 7 kts 202°
2026-04-26 21:23 -37.93281 -57.58027 53 ft 6 kts 162°
2026-04-26 21:23 -37.93309 -57.58023 53 ft 6 kts 174°
2026-04-26 21:23 -37.93332 -57.58023 53 ft 3 kts 192°
2026-04-26 21:24 -37.93341 -57.58041 53 ft 3 kts 277°
2026-04-26 21:24 -37.93330 -57.58068 53 ft 1 kts 300°
2026-04-26 21:24 -37.93326 -57.58076 53 ft 1 kts 301°
2026-04-26 21:24 -37.93323 -57.58083 53 ft 0 kts 302°